| time (UTC) | temp F | wind direction | speed knots | gust knots | rain 1hr in | rain 24hr in | rain mn in | humidity % | barometer mb |
| 20260510190521 | 67 | 144 | 3.5 | 13.0 | 0.00 | 0.19 | 0.00 | 61 | 1013.7 |
| 20260510190031 | 66 | 107 | 2.6 | 7.0 | 0.00 | 0.19 | 0.00 | 61 | 1013.7 |
| 20260510185521 | 66 | 161 | 2.6 | 9.6 | 0.00 | 0.21 | 0.00 | 61 | 1013.6 |
| 20260510185021 | 66 | 176 | 3.5 | 9.6 | 0.00 | 0.21 | 0.00 | 60 | 1013.7 |
| 20260510184520 | 66 | 175 | 3.5 | 8.7 | 0.00 | 0.21 | 0.00 | 61 | 1013.7 |
| 20260510184020 | 66 | 149 | 2.6 | 9.6 | 0.00 | 0.21 | 0.00 | 62 | 1013.7 |
| 20260510183520 | 66 | 189 | 1.7 | 7.8 | 0.00 | 0.21 | 0.00 | 64 | 1013.7 |
| 20260510183020 | 66 | 180 | 3.5 | 7.8 | 0.00 | 0.21 | 0.00 | 62 | 1013.9 |
| 20260510182521 | 66 | 169 | 2.6 | 8.7 | 0.00 | 0.21 | 0.00 | 62 | 1013.9 |
| 20260510182019 | 67 | 123 | 4.3 | 8.7 | 0.00 | 0.21 | 0.00 | 62 | 1014.0 |
| 20260510181519 | 66 | 144 | 2.6 | 7.0 | 0.00 | 0.21 | 0.00 | 63 | 1013.9 |
| 20260510181018 | 66 | 147 | 2.6 | 7.8 | 0.00 | 0.21 | 0.00 | 63 | 1013.8 |
| 20260510180517 | 66 | 218 | 2.6 | 8.7 | 0.00 | 0.21 | 0.00 | 66 | 1013.7 |
| 20260510180015 | 66 | 108 | 3.5 | 7.8 | 0.00 | 0.21 | 0.00 | 65 | 1013.6 |
| 20260510175519 | 66 | 129 | 2.6 | 6.1 | 0.00 | 0.21 | 0.00 | 66 | 1013.7 |
| 20260510175015 | 66 | 150 | 2.6 | 5.2 | 0.00 | 0.21 | 0.00 | 66 | 1013.8 |
| 20260510174515 | 66 | 142 | 1.7 | 7.0 | 0.00 | 0.21 | 0.00 | 67 | 1013.9 |
| 20260510174015 | 66 | 119 | 2.6 | 7.8 | 0.00 | 0.21 | 0.00 | 67 | 1013.8 |
| 20260510173518 | 66 | 138 | 2.6 | 7.8 | 0.00 | 0.21 | 0.00 | 66 | 1013.6 |
| 20260510173014 | 66 | 154 | 2.6 | 7.0 | 0.00 | 0.21 | 0.00 | 65 | 1013.7 |
| 20260510172514 | 66 | 195 | 1.7 | 7.8 | 0.00 | 0.21 | 0.00 | 65 | 1013.6 |
| 20260510172013 | 66 | 161 | 1.7 | 7.8 | 0.00 | 0.21 | 0.00 | 65 | 1013.7 |
| 20260510171523 | 65 | 157 | 1.7 | 8.7 | 0.00 | 0.21 | 0.00 | 69 | 1013.8 |
| 20260510171014 | 65 | 186 | 3.5 | 8.7 | 0.00 | 0.21 | 0.00 | 67 | 1013.8 |
| 20260510170513 | 65 | 176 | 2.6 | 7.0 | 0.00 | 0.21 | 0.00 | 67 | 1013.8 |
| 20260510170013 | 65 | 129 | 1.7 | 6.1 | 0.00 | 0.21 | 0.00 | 67 | 1013.9 |
| 20260510165513 | 65 | 175 | 2.6 | 6.1 | 0.00 | 0.22 | 0.00 | 66 | 1013.9 |
| 20260510165013 | 66 | 198 | 2.6 | 4.3 | 0.00 | 0.22 | 0.00 | 66 | 1013.8 |
| 20260510164511 | 66 | 175 | 0.9 | 5.2 | 0.00 | 0.22 | 0.00 | 69 | 1013.8 |
| 20260510164012 | 66 | 190 | 0.9 | 8.7 | 0.00 | 0.22 | 0.00 | 65 | 1013.8 |
| 20260510163511 | 66 | 169 | 2.6 | 8.7 | 0.00 | 0.22 | 0.00 | 67 | 1014.0 |
| 20260510163010 | 65 | 180 | 1.7 | 7.0 | 0.00 | 0.22 | 0.00 | 69 | 1014.0 |
| 20260510162510 | 65 | 128 | 2.6 | 6.1 | 0.00 | 0.22 | 0.00 | 67 | 1014.1 |
| 20260510162015 | 65 | 166 | 2.6 | 6.1 | 0.00 | 0.22 | 0.00 | 68 | 1014.1 |
| 20260510161508 | 65 | 134 | 1.7 | 6.1 | 0.00 | 0.22 | 0.00 | 68 | 1014.0 |
| 20260510161008 | 65 | 178 | 1.7 | 6.1 | 0.00 | 0.22 | 0.00 | 69 | 1014.1 |
| 20260510160507 | 65 | 196 | 1.7 | 7.8 | 0.00 | 0.22 | 0.00 | 69 | 1014.0 |
| 20260510160011 | 65 | 168 | 3.5 | 10.4 | 0.00 | 0.22 | 0.00 | 69 | 1014.0 |
| 20260510155505 | 64 | 182 | 3.5 | 10.4 | 0.00 | 0.22 | 0.00 | 71 | 1014.1 |
| 20260510155005 | 64 | 168 | 3.5 | 7.0 | 0.00 | 0.22 | 0.00 | 71 | 1014.1 |
| 20260510154504 | 63 | 132 | 2.6 | 7.8 | 0.00 | 0.22 | 0.00 | 71 | 1014.2 |
| 20260510154004 | 63 | 157 | 2.6 | 7.8 | 0.00 | 0.22 | 0.00 | 72 | 1014.2 |
| 20260510153503 | 63 | 173 | 2.6 | 7.0 | 0.00 | 0.22 | 0.00 | 72 | 1014.2 |
| 20260510153004 | 63 | 171 | 2.6 | 7.0 | 0.00 | 0.22 | 0.00 | 73 | 1014.2 |
| 20260510152503 | 63 | 193 | 1.7 | 7.0 | 0.00 | 0.22 | 0.00 | 75 | 1014.3 |
| 20260510152006 | 64 | 202 | 3.5 | 7.0 | 0.00 | 0.22 | 0.00 | 73 | 1014.3 |
| 20260510151502 | 64 | 134 | 1.7 | 4.3 | 0.00 | 0.22 | 0.00 | 75 | 1014.3 |
| 20260510151002 | 64 | 177 | 1.7 | 4.3 | 0.00 | 0.22 | 0.00 | 75 | 1014.2 |
| 20260510150601 | 64 | 105 | 1.7 | 4.3 | 0.00 | 0.22 | 0.00 | 78 | 1014.2 |
| 20260510150059 | 64 | 45 | 0.9 | 6.1 | 0.00 | 0.22 | 0.00 | 76 | 1014.1 |
| 20260510145558 | 64 | 130 | 0.0 | 3.5 | 0.00 | 0.22 | 0.00 | 79 | 1014.2 |
| 20260510145059 | 63 | 87 | 0.9 | 3.5 | 0.00 | 0.22 | 0.00 | 79 | 1014.2 |
| 20260510144606 | 63 | 112 | 0.9 | 2.6 | 0.00 | 0.22 | 0.00 | 81 | 1014.1 |
| 20260510144055 | 63 | 112 | 0.0 | 3.5 | 0.00 | 0.22 | 0.00 | 80 | 1014.1 |
| 20260510143552 | 62 | 348 | 0.0 | 7.0 | 0.00 | 0.22 | 0.00 | 80 | 1014.0 |
| 20260510143052 | 62 | 69 | 1.7 | 7.0 | 0.00 | 0.22 | 0.00 | 80 | 1014.1 |
| 20260510142550 | 61 | 57 | 0.9 | 8.7 | 0.00 | 0.22 | 0.00 | 82 | 1014.0 |
| 20260510142049 | 61 | 42 | 0.9 | 8.7 | 0.00 | 0.22 | 0.00 | 81 | 1014.0 |
| 20260510141548 | 61 | 53 | 0.9 | 4.3 | 0.00 | 0.22 | 0.00 | 83 | 1014.1 |
| 20260510141048 | 60 | 67 | 0.9 | 4.3 | 0.00 | 0.22 | 0.00 | 85 | 1014.2 |
| 20260510140545 | 60 | 39 | 0.9 | 3.5 | 0.00 | 0.22 | 0.00 | 86 | 1014.1 |
| 20260510140043 | 59 | 169 | 0.9 | 4.3 | 0.00 | 0.22 | 0.00 | 88 | 1014.1 |
| 20260510135542 | 58 | 120 | 0.9 | 4.3 | 0.00 | 0.23 | 0.00 | 88 | 1014.2 |
| 20260510135044 | 58 | 143 | 0.0 | 6.1 | 0.00 | 0.23 | 0.00 | 90 | 1014.1 |
| 20260510134542 | 57 | 133 | 1.7 | 5.2 | 0.00 | 0.23 | 0.00 | 91 | 1014.3 |
| 20260510134038 | 56 | 184 | 0.9 | 4.3 | 0.00 | 0.23 | 0.00 | 93 | 1014.2 |
| 20260510133538 | 55 | 169 | 1.7 | 4.3 | 0.00 | 0.23 | 0.00 | 93 | 1014.2 |
| 20260510133036 | 55 | 144 | 0.9 | 2.6 | 0.00 | 0.23 | 0.00 | 95 | 1014.2 |
| 20260510132536 | 54 | 152 | 0.9 | 2.6 | 0.00 | 0.23 | 0.00 | 96 | 1014.2 |
| 20260510132032 | 53 | 157 | 0.9 | 2.6 | 0.00 | 0.23 | 0.00 | 97 | 1014.2 |
| 20260510131531 | 53 | 144 | 0.0 | 1.7 | 0.00 | 0.23 | 0.00 | 97 | 1014.2 |
| 20260510131030 | 53 | 144 | 0.0 | 1.7 | 0.00 | 0.23 | 0.00 | 97 | 1014.3 |
| 20260510130528 | 52 | 144 | 0.0 | 1.7 | 0.00 | 0.23 | 0.00 | 97 | 1014.3 |
| 20260510130026 | 52 | 192 | 0.0 | 0.0 | 0.00 | 0.23 | 0.00 | 98 | 1014.2 |
| 20260510125525 | 52 | 192 | 0.0 | 0.0 | 0.00 | 0.23 | 0.00 | 98 | 1014.3 |
| 20260510125025 | 51 | 192 | 0.0 | 0.9 | 0.00 | 0.23 | 0.00 | 98 | 1014.2 |
| 20260510124524 | 51 | 192 | 0.0 | 0.9 | 0.00 | 0.23 | 0.00 | 97 | 1014.1 |
| 20260510124023 | 51 | 192 | 0.0 | 0.9 | 0.00 | 0.23 | 0.00 | 98 | 1014.0 |
| 20260510123523 | 51 | 192 | 0.0 | 0.9 | 0.00 | 0.23 | 0.00 | 98 | 1014.0 |
| 20260510123021 | 51 | 192 | 0.0 | 0.9 | 0.00 | 0.23 | 0.00 | 98 | 1014.0 |
| 20260510122521 | 50 | 192 | 0.0 | 0.9 | 0.00 | 0.23 | 0.00 | 98 | 1014.0 |
| 20260510122020 | 50 | 192 | 0.0 | 1.7 | 0.00 | 0.23 | 0.00 | 98 | 1013.9 |
| 20260510121520 | 50 | 192 | 0.0 | 1.7 | 0.00 | 0.23 | 0.00 | 98 | 1013.9 |
| 20260510121019 | 50 | 192 | 0.0 | 0.9 | 0.00 | 0.23 | 0.00 | 98 | 1013.9 |
| 20260510120522 | 50 | 192 | 0.0 | 1.7 | 0.00 | 0.23 | 0.00 | 98 | 1014.0 |
| 20260510120016 | 50 | 192 | 0.0 | 1.7 | 0.00 | 0.23 | 0.00 | 98 | 1014.1 |
| 20260510115515 | 50 | 192 | 0.0 | 1.7 | 0.00 | 0.23 | 0.00 | 98 | 1014.0 |
| 20260510115015 | 49 | 192 | 0.0 | 0.9 | 0.00 | 0.23 | 0.00 | 98 | 1013.9 |
| 20260510114518 | 49 | 192 | 0.0 | 0.9 | 0.00 | 0.23 | 0.00 | 98 | 1013.9 |
| 20260510114015 | 49 | 192 | 0.0 | 2.6 | 0.00 | 0.23 | 0.00 | 98 | 1013.9 |
| 20260510113513 | 49 | 192 | 0.0 | 2.6 | 0.00 | 0.23 | 0.00 | 98 | 1013.9 |
| 20260510113017 | 49 | 192 | 0.0 | 0.9 | 0.00 | 0.23 | 0.00 | 98 | 1013.8 |
| 20260510112513 | 49 | 192 | 0.0 | 0.9 | 0.00 | 0.23 | 0.00 | 98 | 1013.6 |
| 20260510112012 | 49 | 192 | 0.0 | 2.6 | 0.00 | 0.23 | 0.00 | 98 | 1013.6 |
| 20260510111511 | 49 | 192 | 0.0 | 2.6 | 0.00 | 0.23 | 0.00 | 98 | 1013.8 |
| 20260510111009 | 49 | 192 | 0.0 | 0.9 | 0.00 | 0.23 | 0.00 | 98 | 1013.7 |
| 20260510110509 | 49 | 192 | 0.0 | 2.6 | 0.00 | 0.23 | 0.00 | 98 | 1013.6 |
| 20260510110014 | 49 | 192 | 0.0 | 3.5 | 0.00 | 0.23 | 0.00 | 98 | 1013.5 |
| 20260510105508 | 49 | 182 | 0.0 | 3.5 | 0.00 | 0.26 | 0.00 | 98 | 1013.6 |
| 20260510105009 | 49 | 128 | 0.0 | 3.5 | 0.00 | 0.26 | 0.00 | 98 | 1013.6 |
| 20260510104506 | 49 | 136 | 0.9 | 1.7 | 0.00 | 0.26 | 0.00 | 98 | 1013.5 |
| 20260510104005 | 49 | 136 | 0.0 | 1.7 | 0.00 | 0.26 | 0.00 | 98 | 1013.4 |
| 20260510103504 | 49 | 136 | 0.0 | 3.5 | 0.00 | 0.26 | 0.00 | 98 | 1013.5 |
| 20260510103004 | 49 | 136 | 0.9 | 4.3 | 0.00 | 0.26 | 0.00 | 98 | 1013.6 |
| 20260510102503 | 49 | 136 | 0.9 | 4.3 | 0.00 | 0.26 | 0.00 | 97 | 1013.4 |
| 20260510102002 | 49 | 102 | 0.0 | 2.6 | 0.00 | 0.26 | 0.00 | 97 | 1013.2 |
| 20260510101502 | 49 | 102 | 0.9 | 2.6 | 0.00 | 0.26 | 0.00 | 97 | 1013.0 |
| 20260510101002 | 49 | 147 | 0.9 | 3.5 | 0.00 | 0.26 | 0.00 | 97 | 1013.0 |
| 20260510100501 | 49 | 182 | 0.0 | 3.5 | 0.00 | 0.26 | 0.00 | 97 | 1013.1 |
| 20260510100001 | 49 | 142 | 0.9 | 4.3 | 0.00 | 0.26 | 0.00 | 97 | 1013.0 |
| 20260510095501 | 49 | 142 | 1.7 | 4.3 | 0.00 | 0.28 | 0.00 | 98 | 1012.9 |
| 20260510095001 | 49 | 128 | 0.0 | 5.2 | 0.00 | 0.28 | 0.00 | 98 | 1012.9 |
| 20260510094600 | 49 | 140 | 0.9 | 3.5 | 0.00 | 0.28 | 0.00 | 98 | 1012.9 |
| 20260510094501 | 49 | 140 | 1.7 | 3.5 | 0.00 | 0.28 | 0.00 | 98 | 1012.9 |
| 20260510094100 | 49 | 117 | 0.9 | 5.2 | 0.00 | 0.28 | 0.00 | 98 | 1012.6 |
| 20260510093600 | 49 | 117 | 1.7 | 5.2 | 0.00 | 0.28 | 0.00 | 98 | 1012.6 |
| 20260510093100 | 49 | 124 | 0.9 | 2.6 | 0.00 | 0.28 | 0.00 | 98 | 1012.6 |
| 20260510092600 | 49 | 124 | 0.9 | 5.2 | 0.00 | 0.28 | 0.00 | 98 | 1012.5 |
| 20260510092058 | 49 | 127 | 0.9 | 5.2 | 0.00 | 0.28 | 0.00 | 98 | 1012.6 |
| 20260510091558 | 49 | 134 | 0.0 | 2.6 | 0.00 | 0.28 | 0.00 | 98 | 1012.7 |
| 20260510091057 | 49 | 134 | 0.0 | 2.6 | 0.00 | 0.28 | 0.00 | 98 | 1012.8 |
| 20260510090557 | 49 | 150 | 0.9 | 2.6 | 0.00 | 0.28 | 0.00 | 98 | 1012.9 |
| 20260510090057 | 49 | 120 | 0.9 | 3.5 | 0.00 | 0.28 | 0.00 | 98 | 1012.8 |
| 20260510085556 | 49 | 139 | 0.9 | 3.5 | 0.00 | 0.35 | 0.00 | 98 | 1013.0 |
| 20260510085058 | 49 | 153 | 0.0 | 4.3 | 0.00 | 0.35 | 0.00 | 98 | 1012.9 |
| 20260510084610 | 49 | 153 | 0.0 | 4.3 | 0.00 | 0.35 | 0.00 | 98 | 1012.9 |
| 20260510084057 | 49 | 119 | 0.9 | 1.7 | 0.00 | 0.35 | 0.00 | 98 | 1013.0 |
| 20260510083559 | 49 | 119 | 0.0 | 3.5 | 0.00 | 0.35 | 0.00 | 98 | 1013.2 |
| 20260510083056 | 49 | 191 | 0.9 | 3.5 | 0.00 | 0.35 | 0.00 | 98 | 1013.3 |
| 20260510082555 | 49 | 149 | 1.7 | 3.5 | 0.00 | 0.35 | 0.00 | 97 | 1013.2 |
| 20260510082056 | 49 | 173 | 1.7 | 3.5 | 0.00 | 0.35 | 0.00 | 97 | 1013.2 |
| 20260510081602 | 49 | 133 | 0.9 | 6.1 | 0.00 | 0.35 | 0.00 | 97 | 1013.2 |
| 20260510081056 | 49 | 140 | 2.6 | 5.2 | 0.00 | 0.35 | 0.00 | 97 | 1013.3 |
| 20260510080553 | 49 | 228 | 1.7 | 3.5 | 0.00 | 0.35 | 0.00 | 97 | 1013.2 |
| 20260510075552 | 49 | 168 | 0.0 | 4.3 | 0.00 | 0.35 | 0.00 | 97 | 1013.2 |
| 20260510075052 | 49 | 137 | 0.0 | 2.6 | 0.00 | 0.35 | 0.00 | 97 | 1013.2 |
| 20260510074554 | 49 | 188 | 0.0 | 4.3 | 0.00 | 0.35 | 0.00 | 97 | 1013.2 |
| 20260510074054 | 49 | 167 | 0.0 | 3.5 | 0.00 | 0.35 | 0.00 | 97 | 1013.4 |
| 20260510073551 | 49 | 70 | 0.0 | 2.6 | 0.00 | 0.35 | 0.00 | 97 | 1013.3 |
| 20260510073053 | 49 | 130 | 0.0 | 3.5 | 0.00 | 0.35 | 0.00 | 97 | 1013.2 |
| 20260510072550 | 49 | 130 | 0.9 | 3.5 | 0.00 | 0.35 | 0.00 | 97 | 1013.2 |
| 20260510072050 | 49 | 135 | 0.9 | 2.6 | 0.00 | 0.35 | 0.00 | 97 | 1013.1 |
| 20260510071550 | 49 | 135 | 0.0 | 1.7 | 0.00 | 0.35 | 0.00 | 97 | 1012.9 |
| 20260510071047 | 49 | 132 | 0.0 | 4.3 | 0.00 | 0.35 | 0.00 | 97 | 1012.9 |
| 20260510070547 | 49 | 155 | 0.9 | 4.3 | 0.00 | 0.35 | 0.00 | 97 | 1013.0 |
| 20260510070051 | 49 | 114 | 0.0 | 3.5 | 0.00 | 0.35 | 0.00 | 97 | 1013.0 |
| 20260510065547 | 48 | 127 | 0.0 | 4.3 | 0.00 | 0.35 | 0.00 | 97 | 1013.0 |
| 20260510065046 | 48 | 126 | 0.9 | 4.3 | 0.00 | 0.35 | 0.00 | 97 | 1013.0 |
| 20260510064548 | 48 | 149 | 0.0 | 2.6 | 0.00 | 0.35 | 0.00 | 97 | 1013.0 |
| 20260510064045 | 48 | 174 | 0.0 | 1.7 | 0.00 | 0.35 | 0.00 | 97 | 1013.1 |
| 20260510063545 | 48 | 174 | 0.0 | 1.7 | 0.00 | 0.35 | 0.00 | 97 | 1013.1 |
| 20260510063045 | 48 | 174 | 0.0 | 2.6 | 0.00 | 0.35 | 0.00 | 97 | 1013.2 |
| 20260510062544 | 48 | 174 | 0.9 | 2.6 | 0.00 | 0.35 | 0.00 | 97 | 1013.0 |
| 20260510062043 | 48 | 174 | 0.9 | 2.6 | 0.00 | 0.35 | 0.00 | 97 | 1013.0 |
| 20260510061543 | 48 | 174 | 0.0 | 1.7 | 0.00 | 0.35 | 0.00 | 97 | 1013.1 |
| 20260510061043 | 49 | 174 | 0.0 | 1.7 | 0.00 | 0.35 | 0.00 | 97 | 1013.0 |
| 20260510060542 | 49 | 174 | 0.0 | 3.5 | 0.00 | 0.35 | 0.00 | 97 | 1013.0 |
| 20260510060047 | 49 | 174 | 0.9 | 3.5 | 0.00 | 0.35 | 0.00 | 97 | 1012.9 |
| 20260510055543 | 49 | 140 | 0.0 | 0.9 | 0.00 | 0.35 | 0.00 | 97 | 1012.8 |
| 20260510055041 | 48 | 140 | 0.0 | 2.6 | 0.00 | 0.35 | 0.00 | 97 | 1012.8 |
| 20260510054541 | 48 | 140 | 0.9 | 1.7 | 0.00 | 0.35 | 0.00 | 97 | 1012.8 |
| 20260510054040 | 48 | 140 | 0.0 | 2.6 | 0.00 | 0.35 | 0.00 | 97 | 1012.8 |
| 20260510053540 | 48 | 140 | 0.0 | 2.6 | 0.00 | 0.35 | 0.00 | 97 | 1012.9 |
| 20260510053040 | 48 | 140 | 0.9 | 2.6 | 0.00 | 0.35 | 0.00 | 97 | 1013.0 |
| 20260510052541 | 49 | 142 | 0.9 | 2.6 | 0.00 | 0.35 | 0.00 | 97 | 1012.9 |
| 20260510052038 | 49 | 130 | 0.9 | 2.6 | 0.00 | 0.35 | 0.00 | 97 | 1012.9 |
| 20260510051538 | 49 | 144 | 0.9 | 1.7 | 0.00 | 0.35 | 0.00 | 97 | 1012.9 |
| 20260510051037 | 49 | 144 | 0.0 | 1.7 | 0.00 | 0.35 | 0.00 | 97 | 1013.0 |
| 20260510050539 | 49 | 144 | 0.0 | 1.7 | 0.00 | 0.35 | 0.00 | 97 | 1013.0 |
| 20260510050037 | 49 | 144 | 0.0 | 2.6 | 0.00 | 0.35 | 0.00 | 97 | 1013.0 |
| 20260510045536 | 49 | 144 | 0.0 | 2.6 | 0.00 | 0.35 | 0.00 | 97 | 1013.1 |
| 20260510045035 | 49 | 144 | 0.0 | 1.7 | 0.00 | 0.35 | 0.00 | 97 | 1013.0 |
| 20260510044536 | 49 | 144 | 0.0 | 1.7 | 0.00 | 0.35 | 0.00 | 97 | 1013.2 |
| 20260510044035 | 49 | 144 | 0.0 | 1.7 | 0.00 | 0.35 | 0.00 | 97 | 1013.1 |
| 20260510043535 | 49 | 144 | 0.0 | 1.7 | 0.00 | 0.35 | 0.00 | 97 | 1013.1 |
| 20260510043035 | 49 | 144 | 0.0 | 1.7 | 0.00 | 0.35 | 0.00 | 97 | 1013.1 |
| 20260510042535 | 49 | 144 | 0.9 | 2.6 | 0.00 | 0.35 | 0.00 | 97 | 1013.2 |
| 20260510042036 | 49 | 144 | 0.0 | 1.7 | 0.00 | 0.35 | 0.00 | 97 | 1013.0 |
| 20260510041532 | 49 | 144 | 0.0 | 0.9 | 0.00 | 0.35 | 0.00 | 97 | 1012.9 |
| 20260510041032 | 49 | 144 | 0.0 | 0.9 | 0.00 | 0.35 | 0.00 | 97 | 1012.9 |
| 20260510040530 | 49 | 144 | 0.0 | 0.9 | 0.00 | 0.35 | 0.00 | 97 | 1012.9 |
| 20260510040029 | 49 | 144 | 0.0 | 0.9 | 0.00 | 0.35 | 0.00 | 97 | 1012.9 |
| 20260510035529 | 49 | 144 | 0.0 | 0.9 | 0.00 | 0.35 | 0.35 | 97 | 1013.0 |
| 20260510035029 | 49 | 144 | 0.0 | 1.7 | 0.00 | 0.35 | 0.35 | 97 | 1013.1 |
| 20260510034529 | 49 | 144 | 0.0 | 1.7 | 0.00 | 0.35 | 0.35 | 97 | 1013.1 |
| 20260510034029 | 49 | 144 | 0.0 | 1.7 | 0.00 | 0.35 | 0.35 | 97 | 1013.2 |
| 20260510033532 | 49 | 144 | 0.0 | 4.3 | 0.00 | 0.35 | 0.35 | 97 | 1013.2 |
| 20260510033042 | 49 | 144 | 1.7 | 4.3 | 0.00 | 0.35 | 0.35 | 97 | 1013.2 |
| 20260510032529 | 49 | 119 | 0.0 | 1.7 | 0.00 | 0.35 | 0.35 | 97 | 1013.2 |
| 20260510032029 | 49 | 119 | 0.0 | 1.7 | 0.00 | 0.35 | 0.35 | 97 | 1013.3 |
| 20260510031531 | 49 | 119 | 0.0 | 2.6 | 0.00 | 0.35 | 0.35 | 97 | 1013.1 |
| 20260510031029 | 49 | 119 | 0.0 | 3.5 | 0.00 | 0.35 | 0.35 | 97 | 1013.1 |
| 20260510030528 | 50 | 119 | 0.0 | 3.5 | 0.00 | 0.35 | 0.35 | 97 | 1013.2 |
| 20260510030028 | 50 | 115 | 0.0 | 1.7 | 0.00 | 0.35 | 0.35 | 97 | 1013.4 |
| 20260510025529 | 50 | 115 | 0.0 | 2.6 | 0.00 | 0.35 | 0.35 | 97 | 1013.4 |
| 20260510025027 | 50 | 115 | 0.0 | 2.6 | 0.00 | 0.35 | 0.35 | 97 | 1013.4 |
| 20260510024527 | 50 | 26 | 0.0 | 1.7 | 0.00 | 0.35 | 0.35 | 97 | 1013.3 |
| 20260510024026 | 50 | 26 | 0.0 | 1.7 | 0.00 | 0.35 | 0.35 | 97 | 1013.3 |
| 20260510023528 | 50 | 26 | 0.0 | 3.5 | 0.00 | 0.35 | 0.35 | 97 | 1013.2 |
| 20260510023026 | 50 | 94 | 0.9 | 3.5 | 0.00 | 0.35 | 0.35 | 97 | 1013.2 |
| 20260510022526 | 50 | 178 | 0.0 | 1.7 | 0.00 | 0.35 | 0.35 | 97 | 1013.1 |
| 20260510022026 | 50 | 178 | 0.0 | 0.9 | 0.00 | 0.35 | 0.35 | 97 | 1013.1 |
| 20260510021606 | 50 | 178 | 0.0 | 1.7 | 0.00 | 0.35 | 0.35 | 97 | 1013.1 |
| 20260510021024 | 50 | 178 | 0.0 | 2.6 | 0.00 | 0.35 | 0.35 | 97 | 1013.1 |
| 20260510020524 | 50 | 178 | 0.0 | 3.5 | 0.00 | 0.35 | 0.35 | 97 | 1013.1 |
| 20260510020025 | 50 | 121 | 0.0 | 0.9 | 0.00 | 0.35 | 0.35 | 97 | 1013.1 |
| 20260510015524 | 50 | 121 | 0.0 | 1.7 | 0.00 | 0.35 | 0.35 | 97 | 1013.1 |
| 20260510015023 | 50 | 121 | 0.0 | 1.7 | 0.00 | 0.35 | 0.35 | 97 | 1013.2 |
| 20260510014533 | 50 | 121 | 0.0 | 3.5 | 0.00 | 0.35 | 0.35 | 97 | 1013.3 |
| 20260510014023 | 50 | 121 | 1.7 | 3.5 | 0.00 | 0.35 | 0.35 | 97 | 1013.3 |
| 20260510013526 | 50 | 171 | 0.0 | 2.6 | 0.00 | 0.35 | 0.35 | 97 | 1013.4 |
| 20260510013023 | 50 | 171 | 0.0 | 2.6 | 0.00 | 0.35 | 0.35 | 97 | 1013.4 |
| 20260510012522 | 50 | 127 | 0.0 | 1.7 | 0.00 | 0.35 | 0.35 | 97 | 1013.4 |
| 20260510012023 | 50 | 127 | 0.0 | 1.7 | 0.00 | 0.35 | 0.35 | 97 | 1013.3 |
| 20260510011524 | 50 | 127 | 0.0 | 2.6 | 0.00 | 0.35 | 0.35 | 97 | 1013.4 |
| 20260510011021 | 50 | 127 | 0.9 | 3.5 | 0.00 | 0.35 | 0.35 | 97 | 1013.4 |
| 20260510010522 | 50 | 129 | 0.0 | 3.5 | 0.00 | 0.35 | 0.35 | 97 | 1013.2 |
| 20260510010032 | 50 | 169 | 0.0 | 3.5 | 0.00 | 0.35 | 0.35 | 97 | 1013.1 |
| 20260510005522 | 50 | 64 | 0.0 | 2.6 | 0.00 | 0.35 | 0.35 | 97 | 1013.1 |
| 20260510005022 | 50 | 62 | 0.0 | 2.6 | 0.00 | 0.35 | 0.35 | 97 | 1012.9 |
| 20260510004522 | 50 | 75 | 0.0 | 1.7 | 0.00 | 0.35 | 0.35 | 97 | 1012.8 |
| 20260510004121 | 50 | 96 | 0.0 | 2.6 | 0.00 | 0.35 | 0.35 | 97 | 1012.7 |
| 20260510003519 | 50 | 42 | 0.0 | 4.3 | 0.00 | 0.35 | 0.35 | 97 | 1012.6 |
| 20260510003023 | 50 | 338 | 0.9 | 4.3 | 0.00 | 0.35 | 0.35 | 97 | 1012.5 |
| 20260510002519 | 50 | 68 | 0.0 | 1.7 | 0.00 | 0.35 | 0.35 | 97 | 1012.4 |
| 20260510002019 | 50 | 68 | 0.0 | 3.5 | 0.00 | 0.35 | 0.35 | 97 | 1012.5 |
| 20260510001519 | 50 | 68 | 0.0 | 3.5 | 0.00 | 0.35 | 0.35 | 97 | 1012.5 |
| 20260510001018 | 50 | 137 | 0.0 | 6.1 | 0.00 | 0.35 | 0.35 | 97 | 1012.5 |
| 20260510000518 | 50 | 137 | 0.0 | 6.1 | 0.00 | 0.35 | 0.35 | 97 | 1012.5 |
| 20260510000018 | 50 | 112 | 0.0 | 2.6 | 0.00 | 0.35 | 0.35 | 97 | 1012.5 |
| 20260509235519 | 50 | 112 | 0.0 | 2.6 | 0.00 | 0.35 | 0.35 | 97 | 1012.4 |
| 20260509235017 | 50 | 72 | 0.9 | 2.6 | 0.00 | 0.35 | 0.35 | 97 | 1012.4 |
| 20260509234521 | 50 | 150 | 0.0 | 4.3 | 0.00 | 0.35 | 0.35 | 97 | 1012.4 |
| 20260509234017 | 50 | 134 | 0.9 | 4.3 | 0.00 | 0.35 | 0.35 | 97 | 1012.3 |
| 20260509233517 | 50 | 76 | 0.0 | 3.5 | 0.00 | 0.35 | 0.35 | 97 | 1012.3 |
| 20260509233016 | 50 | 110 | 0.0 | 5.2 | 0.00 | 0.35 | 0.35 | 97 | 1012.3 |
| 20260509232515 | 50 | 68 | 0.0 | 5.2 | 0.00 | 0.35 | 0.35 | 97 | 1012.3 |
| 20260509232016 | 50 | 121 | 0.9 | 4.3 | 0.00 | 0.35 | 0.35 | 97 | 1012.3 |
| 20260509231515 | 50 | 142 | 0.0 | 4.3 | 0.00 | 0.35 | 0.35 | 96 | 1012.4 |
| 20260509231015 | 50 | 36 | 0.0 | 2.6 | 0.00 | 0.35 | 0.35 | 96 | 1012.4 |
| 20260509230513 | 50 | 96 | 0.0 | 2.6 | 0.00 | 0.35 | 0.35 | 96 | 1012.4 |
| 20260509230023 | 50 | 84 | 0.0 | 3.5 | 0.00 | 0.35 | 0.35 | 96 | 1012.5 |
| 20260509225514 | 50 | 89 | 0.0 | 3.5 | 0.00 | 0.35 | 0.35 | 96 | 1012.4 |
| 20260509225012 | 50 | 29 | 0.0 | 3.5 | 0.00 | 0.35 | 0.35 | 97 | 1012.6 |
| 20260509224514 | 50 | 101 | 0.9 | 3.5 | 0.01 | 0.35 | 0.35 | 96 | 1012.6 |
| 20260509224014 | 50 | 118 | 0.0 | 4.3 | 0.02 | 0.35 | 0.35 | 96 | 1012.6 |
| 20260509223513 | 50 | 158 | 1.7 | 8.7 | 0.02 | 0.35 | 0.35 | 96 | 1012.6 |
| 20260509223013 | 50 | 64 | 0.9 | 7.8 | 0.02 | 0.35 | 0.35 | 96 | 1012.4 |
| 20260509222512 | 50 | 127 | 0.9 | 2.6 | 0.03 | 0.35 | 0.35 | 96 | 1012.5 |
| 20260509222011 | 50 | 244 | 0.0 | 3.5 | 0.04 | 0.35 | 0.35 | 96 | 1012.6 |
| 20260509221511 | 50 | 125 | 0.9 | 8.7 | 0.04 | 0.35 | 0.35 | 96 | 1012.6 |
| 20260509221012 | 50 | 118 | 0.0 | 8.7 | 0.05 | 0.35 | 0.35 | 96 | 1012.7 |
| 20260509220509 | 50 | 128 | 0.0 | 3.5 | 0.05 | 0.35 | 0.35 | 96 | 1012.6 |
| 20260509220009 | 50 | 127 | 0.0 | 2.6 | 0.05 | 0.35 | 0.35 | 96 | 1012.6 |
| 20260509215509 | 50 | 126 | 0.9 | 5.2 | 0.06 | 0.35 | 0.35 | 95 | 1012.8 |
| 20260509215009 | 50 | 126 | 0.9 | 5.2 | 0.06 | 0.35 | 0.35 | 95 | 1012.8 |
| 20260509214509 | 50 | 142 | 1.7 | 5.2 | 0.05 | 0.34 | 0.34 | 95 | 1013.0 |
| 20260509214008 | 50 | 163 | 0.9 | 7.0 | 0.04 | 0.33 | 0.33 | 95 | 1012.9 |
| 20260509213509 | 50 | 106 | 1.7 | 7.0 | 0.04 | 0.33 | 0.33 | 95 | 1012.9 |
| 20260509213010 | 50 | 128 | 0.9 | 4.3 | 0.04 | 0.33 | 0.33 | 95 | 1012.9 |
| 20260509212508 | 50 | 184 | 0.9 | 6.1 | 0.03 | 0.32 | 0.32 | 95 | 1012.7 |
| 20260509212009 | 50 | 177 | 2.6 | 6.1 | 0.03 | 0.31 | 0.31 | 95 | 1012.8 |
| 20260509211508 | 50 | 175 | 0.9 | 7.0 | 0.03 | 0.31 | 0.31 | 95 | 1012.9 |
| 20260509211008 | 50 | 155 | 0.9 | 7.0 | 0.03 | 0.30 | 0.30 | 95 | 1012.9 |
| 20260509210505 | 50 | 195 | 1.7 | 7.0 | 0.03 | 0.30 | 0.30 | 95 | 1012.9 |
| 20260509210007 | 50 | 147 | 2.6 | 5.2 | 0.04 | 0.30 | 0.30 | 95 | 1012.9 |
| 20260509205506 | 51 | 163 | 0.9 | 4.3 | 0.04 | 0.28 | 0.28 | 95 | 1012.9 |
| 20260509205005 | 51 | 194 | 0.9 | 4.3 | 0.05 | 0.28 | 0.28 | 95 | 1012.9 |
| 20260509204504 | 51 | 164 | 0.9 | 3.5 | 0.06 | 0.28 | 0.28 | 95 | 1013.1 |
| 20260509204004 | 50 | 167 | 1.7 | 6.1 | 0.06 | 0.28 | 0.28 | 95 | 1013.2 |
| 20260509203503 | 50 | 142 | 0.9 | 6.1 | 0.07 | 0.28 | 0.28 | 95 | 1013.2 |
| 20260509203003 | 51 | 114 | 1.7 | 6.1 | 0.08 | 0.28 | 0.28 | 95 | 1013.3 |
| 20260509202503 | 51 | 159 | 1.7 | 5.2 | 0.09 | 0.28 | 0.28 | 95 | 1013.4 |
| 20260509202004 | 51 | 132 | 1.7 | 4.3 | 0.10 | 0.28 | 0.28 | 95 | 1013.3 |
| 20260509201510 | 51 | 163 | 1.7 | 7.8 | 0.11 | 0.28 | 0.28 | 95 | 1013.4 |
| 20260509201003 | 51 | 157 | 2.6 | 8.7 | 0.10 | 0.27 | 0.27 | 95 | 1013.4 |
| 20260509200501 | 51 | 185 | 5.2 | 9.6 | 0.10 | 0.26 | 0.26 | 95 | 1013.5 |
| 20260509200001 | 51 | 163 | 1.7 | 8.7 | 0.10 | 0.26 | 0.26 | 95 | 1013.5 |
| 20260509195503 | 51 | 163 | 4.3 | 8.7 | 0.09 | 0.25 | 0.25 | 95 | 1013.6 |
| 20260509195001 | 51 | 155 | 0.9 | 4.3 | 0.08 | 0.24 | 0.24 | 95 | 1013.5 |
| 20260509194500 | 51 | 155 | 0.9 | 4.3 | 0.08 | 0.23 | 0.23 | 95 | 1013.6 |
| 20260509194006 | 51 | 135 | 0.9 | 2.6 | 0.07 | 0.22 | 0.22 | 95 | 1013.6 |
| 20260509193601 | 51 | 135 | 0.9 | 4.3 | 0.07 | 0.22 | 0.22 | 95 | 1013.6 |
| 20260509193101 | 52 | 149 | 1.7 | 4.3 | 0.06 | 0.21 | 0.21 | 95 | 1013.6 |
| 20260509192603 | 52 | 170 | 0.0 | 1.7 | 0.05 | 0.20 | 0.20 | 95 | 1013.6 |
| 20260509192059 | 52 | 191 | 0.0 | 3.5 | 0.04 | 0.18 | 0.18 | 95 | 1013.7 |
| 20260509191609 | 52 | 191 | 0.0 | 3.5 | 0.03 | 0.17 | 0.17 | 95 | 1013.6 |
| 20260509191059 | 52 | 174 | 0.0 | 5.2 | 0.03 | 0.17 | 0.17 | 95 | 1013.6 |